Language: 


Des rapports , des résumés tant et plus, au choix de chacun....


Données statistiques de la station
Quotidien Rapport Septembre 8, 2017 Unités:  Anglais    Métrique   les deux
« Précédent Jour
Suivant Jour »
Quotidien Hebdomadaire Mensuel Annuel Actuel
  Haut: Bas: Moyen:
Température: 62.8 °F 32 °F 59.7 °F
Pt de rosée: 62.6 °F 57.2 °F 59.4 °F
Humidité: 98 % 0 % 96 %
Vitesse du vent: 17 mph 0 mph 7 mph
Rafales: 17.2 mph - -
Vent:- - SW
Pression: 29.9 in 0 in -
Précipitation: 0.36 in    
Historical Graphs
 
 
Données statistiques pour Septembre 8, 2017
Heure Température Point de rosée Pression Vent Vitesse du vent Refales Humidité Pluie (taux horaire)
00:01 59.9 °F 57.2 °F 29.9 in SW 5.6 mph 11 mph 92 % 0 in
00:06 59.9 °F 57.2 °F 29.9 in WSW 7.4 mph 9.6 mph 92 % 0 in
00:11 59.7 °F 57.2 °F 29.9 in WSW 6.3 mph 8.5 mph 93 % 0 in
00:13 59.7 °F 57.2 °F 29.9 in SW 7.8 mph 8.1 mph 92 % 0 in
00:18 59.7 °F 57.2 °F 29.9 in WSW 10.1 mph 11.4 mph 92 % 0 in
00:23 59.7 °F 57.2 °F 29.9 in WSW 10.7 mph 13 mph 94 % 0 in
00:28 59.4 °F 59 °F 29.9 in SW 6.5 mph 13 mph 95 % 0.01 in
00:29 59.4 °F 59 °F 29.9 in WSW 12.1 mph 13 mph 95 % 0.01 in
00:35 59.2 °F 59 °F 29.9 in WSW 8.7 mph 12.1 mph 96 % 0.01 in
00:40 59 °F 59 °F 29.9 in SW 6.3 mph 12.1 mph 96 % 0.01 in
00:45 59 °F 59 °F 29.8 in SSW 5.6 mph 10.1 mph 96 % 0.01 in
00:55 58.8 °F 59 °F 29.8 in SSW 10.3 mph 10.5 mph 97 % 0.01 in
01:00 58.8 °F 59 °F 29.8 in WSW 7.4 mph 11 mph 97 % 0.01 in
01:05 58.8 °F 59 °F 29.8 in SSW 7.4 mph 11 mph 97 % 0.01 in
01:10 58.8 °F 59 °F 29.8 in SW 6.5 mph 10.5 mph 98 % 0.01 in
01:15 58.8 °F 59 °F 29.8 in WSW 4 mph 10.5 mph 98 % 0.01 in
01:20 58.8 °F 59 °F 29.8 in Calm   8.1 mph 98 % 0.01 in
01:25 58.8 °F 59 °F 29.8 in WSW 6.5 mph 8.1 mph 98 % 0 in
01:30 58.8 °F 59 °F 29.8 in SW 4.3 mph 10.1 mph 98 % 0 in
01:35 58.8 °F 59 °F 29.8 in WSW 8.7 mph 10.1 mph 98 % 0 in
01:40 58.8 °F 59 °F 29.8 in SSW 4.3 mph 8.7 mph 98 % 0 in
01:45 58.8 °F 59 °F 29.8 in SW 6.3 mph 8.7 mph 98 % 0 in
01:50 58.8 °F 59 °F 29.8 in SSW 4.5 mph 9.6 mph 98 % 0 in
01:55 58.8 °F 59 °F 29.8 in SSW 8.5 mph 9.6 mph 98 % 0 in
02:00 58.8 °F 59 °F 29.8 in SSW 4.9 mph 8.5 mph 98 % 0.01 in
02:05 58.8 °F 59 °F 29.8 in WSW 6 mph 8.5 mph 98 % 0.01 in
02:10 58.8 °F 59 °F 29.8 in WSW 4.3 mph 8.1 mph 98 % 0.01 in
02:15 59 °F 59 °F 29.8 in West 4.9 mph 8.7 mph 97 % 0.01 in
02:20 59 °F 59 °F 29.8 in West 6.5 mph 8.7 mph 97 % 0.01 in
02:25 59 °F 59 °F 29.8 in WSW 10.1 mph 10.3 mph 97 % 0.01 in
02:30 59 °F 59 °F 29.8 in SW 4.5 mph 10.3 mph 97 % 0.01 in
02:35 59 °F 59 °F 29.8 in SW 7.2 mph 10.1 mph 97 % 0.01 in
02:41 59 °F 59 °F 29.8 in SW 6.5 mph 8.7 mph 97 % 0.01 in
02:46 59 °F 59 °F 29.8 in SW 5.6 mph 8.7 mph 97 % 0.01 in
02:51 59 °F 59 °F 29.8 in WSW 7.6 mph 8.7 mph 97 % 0.01 in
02:56 59 °F 59 °F 29.8 in SW 8.5 mph 8.9 mph 97 % 0 in
03:01 32 °F 59 °F 0 in Calm     0 % 0 in
03:06 59.4 °F 59 °F 29.8 in SW 6.5 mph 8.7 mph 96 % 0 in
03:11 59.4 °F 59 °F 29.8 in SSW 5.6 mph 11.2 mph 96 % 0 in
03:16 59.4 °F 59 °F 29.8 in WSW 10.5 mph 11.2 mph 96 % 0 in
03:21 59.4 °F 59 °F 29.8 in SSW 6 mph 13 mph 95 % 0 in
03:26 59 °F 59 °F 29.8 in WSW 8.1 mph 13 mph 96 % 0 in
03:31 59 °F 59 °F 29.8 in SW 7.6 mph 11.2 mph 96 % 0 in
03:37 59 °F 59 °F 29.8 in SW 6 mph 12.1 mph 96 % 0 in
03:42 59 °F 59 °F 29.8 in WSW 11.4 mph 12.5 mph 96 % 0 in
03:47 59 °F 59 °F 29.7 in SSW 8.7 mph 12.5 mph 96 % 0 in
03:52 59 °F 59 °F 29.7 in WSW 6.3 mph 13.2 mph 96 % 0 in
03:57 59 °F 59 °F 29.7 in SW 6 mph 13.2 mph 96 % 0 in
04:02 59 °F 59 °F 29.7 in SSW 11.9 mph 12.8 mph 96 % 0 in
04:07 59 °F 59 °F 29.7 in SW 5.4 mph 12.8 mph 96 % 0 in
04:12 59 °F 59 °F 29.7 in SW 5.8 mph 11.9 mph 96 % 0 in
04:17 59 °F 59 °F 29.7 in SW 8.7 mph 10.5 mph 96 % 0 in
04:22 59 °F 59 °F 29.7 in SW 8.7 mph 13.6 mph 96 % 0 in
04:27 59 °F 59 °F 29.7 in SSW 7.8 mph 13.6 mph 96 % 0 in
04:32 59 °F 59 °F 29.7 in SW 11.4 mph 12.5 mph 96 % 0 in
04:37 59.2 °F 59 °F 29.7 in South 5.8 mph 12.5 mph 96 % 0 in
04:42 59.2 °F 59 °F 29.7 in SW 10.3 mph 11.9 mph 96 % 0 in
04:47 59.2 °F 59 °F 29.7 in SW 9.2 mph 13 mph 96 % 0 in
04:52 59.2 °F 57.2 °F 29.7 in WSW 7.6 mph 13 mph 95 % 0 in
04:57 59.2 °F 57.2 °F 29.7 in SW 7.8 mph 13.2 mph 95 % 0 in
05:02 59.2 °F 57.2 °F 29.7 in SW 11 mph 13.2 mph 95 % 0 in
05:07 59.4 °F 59 °F 29.7 in SW 5.4 mph 11.2 mph 95 % 0 in
05:13 59.4 °F 59 °F 29.7 in SW 9.8 mph 11.2 mph 95 % 0 in
05:18 59.2 °F 57.2 °F 29.7 in SSW 8.1 mph 11.2 mph 95 % 0 in
05:19 59.2 °F 57.2 °F 29.7 in SW 7.6 mph 11.2 mph 95 % 0 in
05:23 59.2 °F 57.2 °F 29.7 in SW 5.6 mph 10.5 mph 95 % 0 in
05:25 59.2 °F 57.2 °F 29.7 in SSW 7.2 mph 10.5 mph 95 % 0 in
05:26 59.2 °F 57.2 °F 29.7 in SSW 6.5 mph 8.7 mph 95 % 0 in
05:31 59.2 °F 57.2 °F 29.7 in SSW 9.4 mph 9.4 mph 95 % 0 in
05:34 59.2 °F 57.2 °F 29.7 in SW 6.5 mph 9.4 mph 95 % 0 in
05:39 59.2 °F 57.2 °F 29.7 in SSW 5.6 mph 10.5 mph 95 % 0 in
05:44 59.2 °F 57.2 °F 29.7 in SW 9.8 mph 10.3 mph 95 % 0 in
05:49 59.4 °F 59 °F 29.7 in SSW 4.9 mph 10.3 mph 95 % 0 in
05:54 59.4 °F 59 °F 29.7 in WSW 10.3 mph 13 mph 95 % 0 in
05:59 59.4 °F 59 °F 29.7 in SW 7.8 mph 14.3 mph 95 % 0 in
06:04 59.7 °F 59 °F 29.7 in SSW 12.3 mph 14.3 mph 95 % 0 in
06:09 59.7 °F 57.2 °F 29.7 in SW 9.6 mph 12.8 mph 94 % 0 in
06:14 59.7 °F 57.2 °F 29.7 in SSW 6.3 mph 14.8 mph 94 % 0 in
06:19 59.7 °F 57.2 °F 29.7 in SW 9.8 mph 17.2 mph 94 % 0 in
06:24 60.1 °F 59 °F 29.7 in SW 9.6 mph 17.2 mph 94 % 0 in
06:29 60.1 °F 59 °F 29.7 in WSW 7.4 mph 13.6 mph 94 % 0 in
06:34 60.1 °F 59 °F 29.7 in WSW 8.5 mph 13.2 mph 94 % 0 in
06:35 60.1 °F 59 °F 29.7 in WSW 8.5 mph 13.2 mph 94 % 0 in
06:40 60.1 °F 59 °F 29.7 in SW 7.6 mph 13.2 mph 94 % 0 in
06:45 60.1 °F 59 °F 29.7 in SSW 12.8 mph 12.8 mph 94 % 0 in
06:50 60.1 °F 59 °F 29.7 in SSW 7.8 mph 12.8 mph 94 % 0 in
06:55 60.1 °F 59 °F 29.7 in WSW 12.1 mph 12.8 mph 94 % 0 in
07:00 60.1 °F 59 °F 29.7 in SW 7.6 mph 12.8 mph 94 % 0 in
07:05 60.1 °F 59 °F 29.7 in SW 7.2 mph 11 mph 94 % 0 in
07:10 60.3 °F 59 °F 29.7 in SW 8.7 mph 13 mph 93 % 0 in
07:15 60.3 °F 59 °F 29.7 in SSW 12.8 mph 13 mph 93 % 0 in
07:20 60.3 °F 59 °F 29.7 in SW 9.4 mph 15.2 mph 93 % 0 in
07:25 60.3 °F 59 °F 29.7 in SSW 14.3 mph 15.2 mph 93 % 0 in
07:30 60.3 °F 59 °F 29.6 in SSW 8.1 mph 14.3 mph 93 % 0 in
07:35 60.3 °F 59 °F 29.6 in WSW 7.6 mph 13.9 mph 93 % 0 in
07:40 60.3 °F 59 °F 29.6 in WSW 15.4 mph 15.4 mph 93 % 0 in
07:41 60.3 °F 59 °F 29.6 in SSW 8.7 mph 15.4 mph 93 % 0 in
07:46 60.3 °F 59 °F 29.6 in WSW 17 mph 17 mph 93 % 0 in
07:51 60.3 °F 59 °F 29.6 in WSW 12.3 mph 17 mph 94 % 0 in
07:56 60.3 °F 59 °F 29.6 in SSW 13.9 mph 17 mph 94 % 0 in
08:01 60.3 °F 59 °F 29.6 in SSW 6 mph 15.9 mph 94 % 0 in
08:06 60.3 °F 59 °F 29.6 in WSW 7.6 mph 12.8 mph 94 % 0 in
08:11 60.3 °F 59 °F 29.6 in WSW 10.7 mph 12.8 mph 94 % 0 in
08:16 60.3 °F 59 °F 29.6 in SW 6.3 mph 12.5 mph 94 % 0 in
08:21 60.3 °F 59 °F 29.6 in WSW 13.2 mph 13.2 mph 94 % 0 in
08:26 59.7 °F 59 °F 29.6 in WSW 11.2 mph 13.2 mph 95 % 0 in
08:31 59.7 °F 59 °F 29.6 in SW 7.4 mph 11.2 mph 95 % 0 in
08:36 59.4 °F 59 °F 29.6 in WSW 7.2 mph 7.4 mph 96 % 0 in
08:41 59.4 °F 59 °F 29.6 in WSW 3.8 mph 7.4 mph 96 % 0 in
08:46 59.4 °F 59 °F 29.7 in SW 4 mph 7.4 mph 96 % 0 in
08:51 59.4 °F 59 °F 29.7 in SW 4 mph 7.4 mph 96 % 0.01 in
08:56 59.4 °F 59 °F 29.7 in WSW 6 mph 6 mph 97 % 0.02 in
09:01 59.4 °F 59 °F 29.6 in WSW 6 mph 6 mph 98 % 0.03 in
09:06 59.4 °F 59 °F 29.6 in South 4.9 mph 6 mph 98 % 0.05 in
09:11 59.4 °F 59 °F 29.6 in South 4.9 mph 6 mph 98 % 0.05 in
09:16 59.4 °F 59 °F 29.6 in South 4.9 mph 6 mph 98 % 0.05 in
09:22 59.4 °F 59 °F 29.6 in South 4.9 mph 6 mph 98 % 0.05 in
09:27 59.4 °F 59 °F 29.6 in SSW 7.2 mph 7.2 mph 98 % 0.05 in
09:32 59.5 °F 59 °F 29.6 in SSW 7.2 mph 7.2 mph 98 % 0.06 in
09:37 59.5 °F 59 °F 29.6 in SSW 7.2 mph 7.2 mph 98 % 0.06 in
09:42 59.7 °F 59 °F 29.6 in SSW 7.2 mph 7.2 mph 98 % 0.06 in
09:47 59.7 °F 59 °F 29.6 in SSW 7.2 mph 7.2 mph 98 % 0.05 in
09:52 59.7 °F 59 °F 29.6 in SSW 7.2 mph 7.2 mph 98 % 0.05 in
09:57 59.7 °F 59 °F 29.6 in SSW 8.7 mph 8.7 mph 98 % 0.03 in
10:02 59.7 °F 59 °F 29.6 in SSW 8.7 mph 8.7 mph 98 % 0.02 in
10:07 59.7 °F 59 °F 29.6 in SSW 8.7 mph 8.7 mph 98 % 0.01 in
10:12 59.7 °F 59 °F 29.6 in SSW 8.7 mph 8.7 mph 98 % 0.01 in
10:17 59.7 °F 59 °F 29.6 in SSW 8.7 mph 8.7 mph 98 % 0.02 in
10:22 59.7 °F 59 °F 29.6 in SSW 8.7 mph 8.7 mph 98 % 0.02 in
10:27 59.7 °F 59 °F 29.6 in SSW 8.7 mph 8.7 mph 98 % 0.02 in
10:32 59.9 °F 60.8 °F 29.6 in SSW 8.7 mph 8.7 mph 98 % 0.01 in
10:37 59.9 °F 60.8 °F 29.6 in SSW 8.7 mph 8.7 mph 98 % 0.01 in
10:42 60.3 °F 60.8 °F 29.6 in SSW 8.7 mph 8.7 mph 98 % 0.01 in
10:47 60.3 °F 60.8 °F 29.6 in SW 7.8 mph 7.8 mph 98 % 0.01 in
10:52 60.3 °F 60.8 °F 29.6 in SSW 5.6 mph 7.8 mph 98 % 0.01 in
10:57 60.3 °F 60.8 °F 29.6 in SSW 5.6 mph 5.8 mph 98 % 0.01 in
11:02 60.3 °F 60.8 °F 29.6 in SSW 5.6 mph 9.2 mph 98 % 0.01 in
11:07 60.4 °F 60.8 °F 29.6 in WSW 3.8 mph 9.4 mph 98 % 0.02 in
11:12 60.4 °F 60.8 °F 29.6 in SSW 6.3 mph 9.4 mph 98 % 0.01 in
11:17 60.4 °F 60.8 °F 29.6 in WSW 5.4 mph 13 mph 98 % 0.01 in
11:22 60.4 °F 60.8 °F 29.6 in SSW 6.5 mph 13 mph 98 % 0.01 in
11:27 61.5 °F 60.8 °F 29.6 in Calm   7.8 mph 98 % 0.01 in
11:32 61.5 °F 60.8 °F 29.6 in SW 8.1 mph 8.7 mph 97 % 0.01 in
11:37 61.5 °F 60.8 °F 29.6 in SSW 8.5 mph 9.6 mph 97 % 0.01 in
11:42 61.7 °F 60.8 °F 29.6 in WSW 8.5 mph 9.6 mph 97 % 0.01 in
11:47 61.7 °F 60.8 °F 29.6 in SW 5.8 mph 12.8 mph 97 % 0.01 in
11:52 61.7 °F 60.8 °F 29.6 in SSW 8.1 mph 14.3 mph 97 % 0.01 in
11:57 62.2 °F 60.8 °F 29.6 in WSW 4.9 mph 14.3 mph 97 % 0.01 in
12:02 62.8 °F 62.6 °F 29.6 in SSW 5.8 mph 8.1 mph 97 % 0.01 in
12:07 62.8 °F 62.6 °F 29.6 in SSW 8.5 mph 17 mph 97 % 0 in
12:12 62.6 °F 62.6 °F 29.6 in SSW 15.9 mph 17 mph 96 % 0 in
12:17 62.6 °F 62.6 °F 29.6 in West 7.6 mph 15.9 mph 96 % 0 in
12:22 62.4 °F 62.6 °F 29.6 in SSW 7.6 mph 10.5 mph 96 % 0 in
12:27 62.2 °F 60.8 °F 29.6 in SSW 3.6 mph 10.7 mph 96 % 0 in
12:32 62.1 °F 60.8 °F 29.6 in SSW 6.3 mph 10.7 mph 96 % 0 in
12:37 61.9 °F 60.8 °F 29.6 in SSW 7.6 mph 9.4 mph 96 % 0 in
12:42 61.7 °F 60.8 °F 29.6 in SSW 6.5 mph 7.6 mph 96 % 0 in
12:47 61.7 °F 60.8 °F 29.6 in SSW 6.5 mph 7.6 mph 97 % 0.01 in
12:58 61.5 °F 60.8 °F 29.6 in WSW 8.7 mph 8.7 mph 97 % 0.01 in
13:03 61.5 °F 60.8 °F 29.6 in WSW 8.7 mph 8.7 mph 97 % 0.01 in
13:08 61.5 °F 60.8 °F 29.6 in WSW 8.7 mph 8.7 mph 97 % 0.01 in
13:13 61.7 °F 60.8 °F 29.6 in SSW 9.6 mph 9.6 mph 97 % 0.01 in
13:18 61.9 °F 60.8 °F 29.6 in WSW 7.8 mph 9.6 mph 97 % 0.01 in
13:23 62.1 °F 60.8 °F 29.6 in SSW 6.5 mph 12.5 mph 97 % 0.01 in
13:28 62.2 °F 60.8 °F 29.6 in WSW 10.5 mph 12.5 mph 97 % 0.01 in
13:33 62.4 °F 62.6 °F 29.6 in WSW 11 mph 13.9 mph 97 % 0.03 in
13:38 62.4 °F 62.6 °F 29.6 in WSW 13.2 mph 13.9 mph 96 % 0.03 in
13:43 62.6 °F 62.6 °F 29.6 in WSW 8.7 mph 13.2 mph 96 % 0.01 in
13:48 62.6 °F 62.6 °F 29.6 in WSW 11 mph 13.2 mph 96 % 0.01 in
13:53 62.6 °F 62.6 °F 29.6 in West 7.8 mph 13 mph 96 % 0.01 in
13:58 62.6 °F 62.6 °F 29.6 in SW 4.9 mph 12.8 mph 96 % 0.01 in
14:03 62.6 °F 60.8 °F 29.6 in West 7.2 mph 13.2 mph 95 % 0.01 in
14:08 62.6 °F 60.8 °F 29.6 in West 8.7 mph 16.8 mph 95 % 0.01 in
14:13 62.6 °F 60.8 °F 29.6 in WSW 6.3 mph 16.8 mph 95 % 0.01 in
14:18 62.6 °F 60.8 °F 29.6 in WSW 7.8 mph 10.3 mph 95 % 0.01 in
14:23 62.6 °F 60.8 °F 29.6 in WSW 8.9 mph 14.8 mph 95 % 0.01 in
14:29 62.6 °F 60.8 °F 29.6 in SW 6 mph 14.8 mph 95 % 0 in
14:34 62.6 °F 60.8 °F 29.6 in WSW 10.5 mph 13.2 mph 95 % 0 in
14:39 62.6 °F 60.8 °F 29.6 in WSW 7.8 mph 13.2 mph 94 % 0 in
14:44 62.6 °F 60.8 °F 29.6 in SSW 7.8 mph 10.7 mph 94 % 0 in
14:49 62.6 °F 60.8 °F 29.6 in West 10.1 mph 15.4 mph 94 % 0 in
14:54 62.4 °F 60.8 °F 29.6 in WSW 5.6 mph 15.4 mph 94 % 0 in
14:56 62.4 °F 60.8 °F 29.6 in SSW 7.4 mph 15.4 mph 94 % 0 in
15:01 62.4 °F 60.8 °F 29.6 in SSW 7.4 mph 15.4 mph 94 % 0 in
15:06 62.2 °F 60.8 °F 29.6 in WSW 7.2 mph 7.6 mph 95 % 0 in
15:11 62.2 °F 60.8 °F 29.6 in SSW 8.7 mph 8.7 mph 95 % 0 in
15:16 62.2 °F 60.8 °F 29.5 in SSW 8.7 mph 8.7 mph 95 % 0.01 in
15:21 62.2 °F 60.8 °F 29.5 in SSW 8.7 mph 8.7 mph 95 % 0.01 in
15:26 62.1 °F 60.8 °F 29.5 in SSW 8.7 mph 8.7 mph 95 % 0.01 in
15:31 62.1 °F 60.8 °F 29.6 in SSW 8.7 mph 8.7 mph 95 % 0.01 in
15:36 62.1 °F 60.8 °F 29.6 in SSW 8.7 mph 8.7 mph 96 % 0.01 in
15:41 62.1 °F 60.8 °F 29.6 in SSW 8.7 mph 8.7 mph 96 % 0.01 in
15:46 62.1 °F 60.8 °F 29.6 in SW 5.8 mph 5.8 mph 96 % 0.02 in
15:51 61.9 °F 60.8 °F 29.6 in SW 5.8 mph 5.8 mph 96 % 0.02 in
15:56 61.9 °F 60.8 °F 29.6 in SW 5.8 mph 5.8 mph 96 % 0.02 in
16:01 61.7 °F 60.8 °F 29.6 in SW 5.8 mph 5.8 mph 96 % 0.02 in
16:06 61.7 °F 60.8 °F 29.6 in SW 5.8 mph 5.8 mph 96 % 0.03 in
16:11 61.5 °F 60.8 °F 29.6 in SW 5.8 mph 5.8 mph 96 % 0.03 in
16:17 61.5 °F 60.8 °F 29.6 in SSW 6.3 mph 6.3 mph 96 % 0.02 in
16:22 61.5 °F 60.8 °F 29.6 in WSW 5.6 mph 6.3 mph 96 % 0.02 in
16:27 61.5 °F 60.8 °F 29.6 in SW 6 mph 6 mph 97 % 0.02 in
16:32 61.5 °F 60.8 °F 29.6 in SW 6 mph 6 mph 97 % 0.03 in
16:37 61.3 °F 60.8 °F 29.6 in SW 6 mph 6 mph 97 % 0.05 in
16:42 61 °F 60.8 °F 29.6 in SW 8.5 mph 8.5 mph 97 % 0.1 in
16:47 61 °F 60.8 °F 29.6 in SSW 7.8 mph 8.5 mph 97 % 0.09 in
16:52 61 °F 60.8 °F 29.6 in SSW 7.8 mph 8.5 mph 97 % 0.09 in
16:57 61.2 °F 60.8 °F 29.6 in WSW 10.5 mph 10.5 mph 97 % 0.1 in
17:02 61.3 °F 60.8 °F 29.5 in SW 13.2 mph 13.2 mph 97 % 0.1 in
17:07 61.3 °F 60.8 °F 29.5 in SSW 8.1 mph 13.2 mph 97 % 0.09 in
17:12 61.3 °F 60.8 °F 29.5 in SSW 8.1 mph 8.1 mph 97 % 0.1 in
17:17 61.3 °F 60.8 °F 29.5 in SSW 8.1 mph 8.1 mph 97 % 0.1 in
17:22 61.2 °F 60.8 °F 29.5 in SSW 8.1 mph 8.1 mph 97 % 0.1 in
17:27 61 °F 60.8 °F 29.5 in SSW 8.1 mph 8.1 mph 97 % 0.1 in
17:32 61 °F 60.8 °F 29.5 in SSW 9.8 mph 9.8 mph 97 % 0.09 in
17:37 60.8 °F 60.8 °F 29.5 in West 6 mph 9.8 mph 97 % 0.07 in
17:42 60.8 °F 60.8 °F 29.5 in SW 8.5 mph 9.8 mph 97 % 0.02 in
17:47 60.6 °F 60.8 °F 29.5 in SW 7.4 mph 8.5 mph 98 % 0.02 in
17:52 60.6 °F 60.8 °F 29.5 in SSW 5.4 mph 8.5 mph 98 % 0.03 in
17:57 60.8 °F 60.8 °F 29.5 in SSW 5.4 mph 7.4 mph 97 % 0.02 in
18:02 60.8 °F 60.8 °F 29.5 in SSW 5.4 mph 7.4 mph 97 % 0.02 in
18:07 60.8 °F 60.8 °F 29.5 in SSW 5.4 mph 7.4 mph 97 % 0.02 in
18:12 60.6 °F 60.8 °F 29.5 in SSW 5.4 mph 7.4 mph 98 % 0.01 in
18:17 60.6 °F 60.8 °F 29.5 in SSW 9.8 mph 9.8 mph 98 % 0.01 in
18:22 60.6 °F 60.8 °F 29.5 in SSW 9.8 mph 9.8 mph 97 % 0.01 in
18:27 60.4 °F 59 °F 29.5 in West 8.7 mph 9.8 mph 97 % 0.04 in
18:32 60.4 °F 59 °F 29.5 in WSW 10.1 mph 10.1 mph 97 % 0.06 in
18:37 60.4 °F 60.8 °F 29.5 in WSW 10.1 mph 10.1 mph 98 % 0.06 in
18:42 60.3 °F 60.8 °F 29.5 in WSW 10.1 mph 10.1 mph 98 % 0.06 in
18:47 60.4 °F 60.8 °F 29.5 in WSW 10.1 mph 10.1 mph 98 % 0.06 in
18:52 60.4 °F 60.8 °F 29.5 in WSW 8.5 mph 10.1 mph 98 % 0.06 in
18:57 60.4 °F 60.8 °F 29.5 in WSW 8.5 mph 10.1 mph 98 % 0.06 in
19:02 60.3 °F 60.8 °F 29.5 in WSW 5.6 mph 5.6 mph 98 % 0.06 in
19:07 60.3 °F 60.8 °F 29.5 in WSW 5.6 mph 5.6 mph 98 % 0.06 in
19:12 60.1 °F 60.8 °F 29.5 in WSW 5.6 mph 5.6 mph 98 % 0.07 in
19:17 60.1 °F 60.8 °F 29.5 in WSW 5.6 mph 5.6 mph 98 % 0.07 in
19:22 59.9 °F 60.8 °F 29.5 in WSW 5.6 mph 5.6 mph 98 % 0.07 in
19:28 59.9 °F 59 °F 29.5 in SSW 7.4 mph 7.4 mph 97 % 0.05 in
19:33 59.7 °F 59 °F 29.5 in SSW 7.4 mph 7.4 mph 97 % 0.03 in
19:38 59.4 °F 59 °F 29.5 in SSW 5.6 mph 7.4 mph 97 % 0.03 in
19:43 59.4 °F 59 °F 29.5 in SSW 4 mph 6.5 mph 97 % 0.03 in
19:48 59.2 °F 59 °F 29.5 in WSW 6.5 mph 7.2 mph 97 % 0.02 in
19:53 59.2 °F 59 °F 29.5 in WSW 6.3 mph 8.5 mph 97 % 0.02 in
19:58 59 °F 59 °F 29.5 in WSW 6.5 mph 8.5 mph 97 % 0.02 in
20:03 58.8 °F 59 °F 29.5 in SW 5.6 mph 7.8 mph 98 % 0.02 in
20:08 58.8 °F 59 °F 29.5 in WSW 5.8 mph 6.5 mph 98 % 0.02 in
20:13 58.6 °F 59 °F 29.5 in SSW 6.3 mph 6.3 mph 98 % 0.01 in
20:18 58.5 °F 59 °F 29.5 in SW 7.8 mph 7.8 mph 98 % 0.01 in
20:23 58.5 °F 59 °F 29.5 in SW 6.5 mph 7.8 mph 98 % 0 in
20:28 58.1 °F 59 °F 29.5 in WSW 4.9 mph 7.8 mph 98 % 0 in
20:33 57.9 °F 57.2 °F 29.5 in SSW 10.3 mph 10.3 mph 97 % 0 in
20:38 57.7 °F 57.2 °F 29.5 in WSW 6.3 mph 10.3 mph 97 % 0 in
20:44 57.4 °F 57.2 °F 29.5 in WSW 6.3 mph 7.6 mph 97 % 0 in
20:49 57.4 °F 57.2 °F 29.5 in WSW 6.9 mph 7.6 mph 97 % 0 in
20:54 57.2 °F 57.2 °F 29.5 in SW 3.1 mph 8.9 mph 97 % 0 in
20:59 57.2 °F 57.2 °F 29.5 in WSW 5.4 mph 8.9 mph 97 % 0 in
21:04 57.2 °F 57.2 °F 29.5 in WSW 4.9 mph 8.1 mph 97 % 0 in
21:09 57.2 °F 57.2 °F 29.5 in WSW 5.4 mph 6.9 mph 97 % 0 in
21:14 57 °F 57.2 °F 29.5 in WSW 3.8 mph 6.3 mph 98 % 0 in
21:19 57 °F 57.2 °F 29.5 in SW 3.8 mph 6.3 mph 98 % 0 in
21:24 57 °F 57.2 °F 29.5 in SSW 5.4 mph 8.1 mph 98 % 0 in
21:29 57 °F 57.2 °F 29.5 in SW 4.9 mph 8.1 mph 98 % 0 in
21:34 57 °F 57.2 °F 29.5 in SW 5.4 mph 6.3 mph 98 % 0 in
21:39 57 °F 57.2 °F 29.5 in Calm   6.3 mph 98 % 0 in
21:44 57 °F 57.2 °F 29.5 in SSW 5.4 mph 7.2 mph 98 % 0 in
21:49 57.2 °F 57.2 °F 29.5 in SW 5.4 mph 7.2 mph 98 % 0 in
21:54 57.2 °F 57.2 °F 29.5 in SSW 5.6 mph 7.2 mph 98 % 0 in
21:59 57.2 °F 57.2 °F 29.5 in Calm   7.2 mph 98 % 0 in
22:04 57.2 °F 57.2 °F 29.5 in SSW 2.7 mph 7.2 mph 98 % 0 in
22:09 57.2 °F 57.2 °F 29.5 in Calm   4.9 mph 98 % 0 in
22:14 57.2 °F 57.2 °F 29.5 in SW 4.7 mph 4.7 mph 98 % 0 in
22:19 57.2 °F 57.2 °F 29.5 in SW 3.8 mph 5.6 mph 98 % 0 in
22:24 57.2 °F 57.2 °F 29.5 in SW 4 mph 5.6 mph 98 % 0 in
22:29 57.2 °F 57.2 °F 29.5 in WSW 2.9 mph 6 mph 98 % 0 in
22:34 57.2 °F 57.2 °F 29.5 in SSW 7.2 mph 7.2 mph 98 % 0 in
22:39 57.2 °F 57.2 °F 29.5 in SW 6.7 mph 7.2 mph 98 % 0 in
22:44 57.2 °F 57.2 °F 29.5 in Calm   6.7 mph 98 % 0 in
22:49 57.2 °F 57.2 °F 29.5 in Calm   4.9 mph 98 % 0 in
22:54 57.2 °F 57.2 °F 29.5 in SW 3.4 mph 5.8 mph 98 % 0 in
22:59 57.4 °F 57.2 °F 29.5 in Calm   6 mph 98 % 0 in
23:04 57.4 °F 57.2 °F 29.4 in WSW 3.8 mph 6 mph 98 % 0 in
23:05 57.4 °F 57.2 °F 29.4 in Calm   4.9 mph 98 % 0 in
23:10 57.4 °F 57.2 °F 29.4 in Calm   4.9 mph 98 % 0 in
23:15 57.4 °F 57.2 °F 29.4 in Calm   5.4 mph 98 % 0 in
23:20 57.6 °F 57.2 °F 29.4 in Calm   6.5 mph 98 % 0 in
23:25 57.4 °F 57.2 °F 29.4 in SW 4.7 mph 6.5 mph 98 % 0 in
23:30 57.6 °F 57.2 °F 29.4 in WSW 3.6 mph 5.8 mph 98 % 0 in
23:35 57.4 °F 57.2 °F 29.4 in SW 4.9 mph 8.5 mph 98 % 0 in
23:40 57.6 °F 57.2 °F 29.4 in SSW 3.8 mph 8.5 mph 98 % 0 in
23:45 57.6 °F 57.2 °F 29.4 in SSE 0.9 mph 6 mph 98 % 0 in
23:50 57.6 °F 57.2 °F 29.4 in Calm   6 mph 98 % 0 in
23:55 57.4 °F 57.2 °F 29.4 in WSW 4.3 mph 4.3 mph 98 % 0 in
Le Gheer Warneton
Courtoisie de Weather Underground - 2.25 mb

Mise a jour : 17-12-17 07:17:12
Généré par Cumulus 1.9.4 (1099)